• In Hungary
  • List of Countries
  • For 7 days
  • Water Temperature
  • Satellite Maps
  • Weather Map
  • News
  • Weather Widgets
  • user-avatar
    Login

    Hourly Weather Tervuren

    Today, 17 December, Sunday

    Time Temperature Precipitation Wind Pressure Humidity
    00:00 0°C° 0 mm 3 mps 757 mmHg 89%
    01:00 0°C° 0 mm 3 mps 758 mmHg 90%
    02:00 0°C° 0 mm 3 mps 758 mmHg 90%
    03:00 0°C° 0 mm 3 mps 758 mmHg 90%
    04:00 0°C° 0.1 mm 3 mps 758 mmHg 90%
    05:00 0°C° 0.1 mm 3 mps 759 mmHg 90%
    06:00 +1°C° 0.1 mm 3 mps 759 mmHg 91%
    07:00 +1°C° 0 mm 3 mps 759 mmHg 90%
    08:00 +1°C° 0 mm 3 mps 760 mmHg 90%
    09:00 +1°C° 0 mm 3 mps 760 mmHg 90%
    10:00 +2°C° 0 mm 3 mps 761 mmHg 87%
    11:00 +3°C° 0 mm 3 mps 761 mmHg 84%
    12:00 +4°C° 0 mm 4 mps 761 mmHg 81%
    13:00 +3°C° 0 mm 3 mps 761 mmHg 82%
    14:00 +3°C° 0 mm 3 mps 761 mmHg 84%
    15:00 +2°C° 0 mm 3 mps 761 mmHg 85%
    16:00 +2°C° 0 mm 3 mps 761 mmHg 85%
    17:00 0°C° 0 mm 4 mps 761 mmHg 84%
    18:00 0°C° 0 mm 4 mps 761 mmHg 84%
    19:00 0°C° 0.1 mm 5 mps 761 mmHg 84%
    20:00 0°C° 0.1 mm 5 mps 761 mmHg 83%
    21:00 +1°C° 0.1 mm 6 mps 760 mmHg 83%
    22:00 +1°C° 0.5 mm 6 mps 760 mmHg 85%
    23:00 +2°C° 0.5 mm 7 mps 759 mmHg 87%

    Tomorrow, 18 December, Monday

    Time Temperature Precipitation Wind Pressure Humidity
    00:00 +2°C° 0.5 mm 7 mps 759 mmHg 90%
    01:00 +2°C° 0.3 mm 6 mps 758 mmHg 91%
    02:00 +3°C° 0.3 mm 5 mps 758 mmHg 92%
    03:00 +3°C° 0.3 mm 5 mps 758 mmHg 94%
    04:00 +5°C° 0.1 mm 5 mps 758 mmHg 92%
    05:00 +5°C° 0.1 mm 5 mps 758 mmHg 90%
    06:00 +5°C° 0.1 mm 4 mps 759 mmHg 87%
    07:00 +4°C° 0 mm 4 mps 759 mmHg 87%
    08:00 +4°C° 0 mm 4 mps 760 mmHg 86%
    09:00 +4°C° 0 mm 3 mps 761 mmHg 85%
    10:00 +4°C° 0 mm 4 mps 761 mmHg 82%
    11:00 +5°C° 0 mm 4 mps 762 mmHg 78%
    12:00 +6°C° 0 mm 5 mps 762 mmHg 75%
    13:00 +6°C° 0 mm 4 mps 762 mmHg 78%
    14:00 +5°C° 0 mm 3 mps 763 mmHg 81%
    15:00 +5°C° 0 mm 3 mps 763 mmHg 84%
    16:00 +4°C° 0 mm 3 mps 763 mmHg 86%
    17:00 +5°C° 0 mm 2 mps 764 mmHg 88%
    18:00 +4°C° 0 mm 2 mps 765 mmHg 90%
    19:00 +4°C° 0 mm 2 mps 765 mmHg 91%
    20:00 +4°C° 0 mm 2 mps 765 mmHg 91%
    21:00 +4°C° 0 mm 1 mps 766 mmHg 91%
    22:00 +4°C° 0 mm 1 mps 766 mmHg 92%
    23:00 +4°C° 0 mm 1 mps 767 mmHg 92%

    Day after tomorrow, 19 December, Tuesday

    Time Temperature Precipitation Wind Pressure Humidity
    00:00 +4°C° 0 mm 1 mps 767 mmHg 92%
    01:00 +4°C° 0 mm 1 mps 767 mmHg 93%
    02:00 +4°C° 0 mm 1 mps 767 mmHg 93%
    03:00 +3°C° 0 mm 1 mps 767 mmHg 94%
    04:00 +3°C° 0 mm 1 mps 768 mmHg 94%
    05:00 +3°C° 0 mm 1 mps 768 mmHg 94%
    06:00 +3°C° 0 mm 1 mps 768 mmHg 94%
    07:00 +3°C° 0 mm 1 mps 768 mmHg 94%
    08:00 +4°C° 0 mm 1 mps 769 mmHg 95%
    09:00 +3°C° 0 mm 2 mps 769 mmHg 95%
    10:00 +4°C° 0 mm 2 mps 769 mmHg 92%
    11:00 +5°C° 0 mm 2 mps 769 mmHg 89%
    12:00 +6°C° 0 mm 2 mps 769 mmHg 86%
    13:00 +5°C° 0 mm 2 mps 769 mmHg 88%
    14:00 +5°C° 0 mm 2 mps 769 mmHg 89%
    15:00 +5°C° 0 mm 2 mps 769 mmHg 91%
    16:00 +4°C° 0 mm 2 mps 769 mmHg 91%
    17:00 +4°C° 0 mm 2 mps 769 mmHg 92%
    18:00 +2°C° 0 mm 3 mps 769 mmHg 93%
    19:00 +2°C° 0 mm 3 mps 769 mmHg 93%
    20:00 +2°C° 0 mm 3 mps 770 mmHg 93%
    21:00 +2°C° 0 mm 3 mps 770 mmHg 93%
    22:00 +2°C° 0 mm 3 mps 770 mmHg 94%
    23:00 +2°C° 0 mm 3 mps 769 mmHg 94%

    20 December, Wednesday

    Time Temperature Precipitation Wind Pressure Humidity
    00:00 +2°C° 0 mm 3 mps 769 mmHg 94%
    01:00 +2°C° 0 mm 3 mps 769 mmHg 94%
    02:00 +2°C° 0 mm 3 mps 769 mmHg 94%
    03:00 +2°C° 0 mm 3 mps 769 mmHg 94%
    04:00 +2°C° 0 mm 3 mps 769 mmHg 94%
    05:00 +2°C° 0 mm 3 mps 769 mmHg 93%
    06:00 +2°C° 0 mm 3 mps 768 mmHg 93%
    07:00 +2°C° 0 mm 3 mps 769 mmHg 93%
    08:00 +3°C° 0 mm 3 mps 769 mmHg 93%
    09:00 +3°C° 0 mm 3 mps 769 mmHg 93%
    10:00 +4°C° 0 mm 3 mps 769 mmHg 94%
    11:00 +5°C° 0 mm 3 mps 769 mmHg 94%
    12:00 +5°C° 0 mm 3 mps 768 mmHg 95%
    13:00 +5°C° 0 mm 3 mps 768 mmHg 96%
    14:00 +7°C° 0 mm 3 mps 768 mmHg 96%
    15:00 +7°C° 0 mm 3 mps 768 mmHg 97%
    16:00 +7°C° 0 mm 3 mps 768 mmHg 97%
    17:00 +7°C° 0 mm 3 mps 768 mmHg 97%
    18:00 +7°C° 0 mm 3 mps 769 mmHg 97%
    19:00 +7°C° 0 mm 3 mps 769 mmHg 97%
    20:00 +7°C° 0 mm 3 mps 769 mmHg 97%
    21:00 +7°C° 0 mm 3 mps 769 mmHg 97%
    22:00 +7°C° 0 mm 4 mps 769 mmHg 97%
    23:00 +7°C° 0 mm 4 mps 768 mmHg 97%

    21 December, Thursday

    Time Temperature Precipitation Wind Pressure Humidity
    00:00 +7°C° 0 mm 4 mps 768 mmHg 97%
    01:00 +7°C° 0 mm 4 mps 768 mmHg 97%
    02:00 +7°C° 0 mm 4 mps 768 mmHg 96%
    03:00 +8°C° 0 mm 4 mps 768 mmHg 96%
    04:00 +8°C° 0 mm 5 mps 768 mmHg 96%
    05:00 +8°C° 0 mm 5 mps 767 mmHg 95%
    06:00 +8°C° 0 mm 5 mps 767 mmHg 95%
    07:00 +8°C° 0 mm 5 mps 767 mmHg 94%
    08:00 +8°C° 0 mm 5 mps 767 mmHg 93%
    09:00 +8°C° 0 mm 5 mps 767 mmHg 93%
    10:00 +8°C° 0 mm 6 mps 767 mmHg 91%
    11:00 +8°C° 0 mm 6 mps 767 mmHg 90%
    12:00 +9°C° 0 mm 6 mps 766 mmHg 89%
    13:00 +9°C° 0.1 mm 6 mps 766 mmHg 88%
    14:00 +9°C° 0.1 mm 6 mps 766 mmHg 88%
    15:00 +9°C° 0.1 mm 6 mps 766 mmHg 88%
    16:00 +9°C° 0.1 mm 6 mps 765 mmHg 88%
    17:00 +9°C° 0.1 mm 6 mps 765 mmHg 88%
    18:00 +8°C° 0.1 mm 6 mps 765 mmHg 87%
    19:00 +9°C° 0.1 mm 6 mps 765 mmHg 87%
    20:00 +9°C° 0.1 mm 7 mps 764 mmHg 86%
    21:00 +9°C° 0.1 mm 7 mps 764 mmHg 85%
    22:00 +9°C° 0.7 mm 7 mps 764 mmHg 87%
    23:00 +9°C° 0.7 mm 8 mps 763 mmHg 88%

    22 December, Friday

    Time Temperature Precipitation Wind Pressure Humidity
    00:00 +9°C° 0.7 mm 8 mps 763 mmHg 89%
    01:00 +8°C° 0.4 mm 7 mps 764 mmHg 87%
    02:00 +6°C° 0.4 mm 7 mps 765 mmHg 84%
    03:00 +7°C° 0.4 mm 6 mps 766 mmHg 81%
    04:00 +5°C° 0 mm 6 mps 767 mmHg 81%
    05:00 +6°C° 0 mm 5 mps 768 mmHg 81%
    06:00 +5°C° 0 mm 4 mps 769 mmHg 81%
    07:00 +5°C° 0 mm 4 mps 770 mmHg 81%
    08:00 +5°C° 0 mm 4 mps 771 mmHg 82%
    09:00 +5°C° 0 mm 3 mps 772 mmHg 82%
    10:00 +5°C° 0 mm 4 mps 772 mmHg 78%
    11:00 +6°C° 0 mm 5 mps 772 mmHg 73%
    12:00 +7°C° 0 mm 5 mps 772 mmHg 69%
    13:00 +6°C° 0 mm 5 mps 773 mmHg 72%
    14:00 +6°C° 0 mm 4 mps 773 mmHg 75%
    15:00 +5°C° 0 mm 3 mps 773 mmHg 78%
    16:00 +5°C° 0 mm 3 mps 773 mmHg 82%
    17:00 +4°C° 0 mm 3 mps 773 mmHg 85%
    18:00 +4°C° 0 mm 3 mps 773 mmHg 88%
    19:00 +3°C° 0 mm 4 mps 773 mmHg 88%
    20:00 +3°C° 0 mm 4 mps 773 mmHg 88%
    21:00 +3°C° 0 mm 4 mps 773 mmHg 87%
    22:00 +3°C° 0 mm 4 mps 773 mmHg 86%
    23:00 +3°C° 0 mm 4 mps 773 mmHg 85%
    Show more